METEOR-M 1 1 35865U 09049A 21056.71128968 .00000006 00000-0 21500-4 0 9993 2 35865 98.4676 39.3298 0002641 148.6010 211.5326 14.22265232593912 STERKH 2 1 35866U 09049B 21056.23594501 .00000029 00000-0 31446-4 0 9996 2 35866 98.4465 40.2484 0003782 140.3934 219.7521 14.23003067593956 IRIS & FREGAT R/B 1 35867U 09049C 21056.63612676 .00419577 94681-4 36961-3 0 9995 2 35867 96.8639 105.3354 0000859 122.1587 34.7465 16.13073061646307 TATIANA 2 1 35868U 09049D 21056.39592758 .00000029 00000-0 31447-4 0 9998 2 35868 98.4520 40.2810 0004807 136.7456 223.4101 14.22910623594018 UGATUSAT 1 35869U 09049E 21056.39847412 -.00000007 00000-0 15828-4 0 9991 2 35869 98.4657 38.0676 0004854 155.0325 205.1090 14.22450843593887 SUMBANDILA (SO-67) 1 35870U 09049F 21056.59371409 .00025448 00000-0 17891-3 0 9999 2 35870 96.9983 90.2924 0002992 78.1289 78.2497 15.74124595643847 BLITS 1 35871U 09049G 21056.37852639 -.00000025 00000-0 78319-5 0 9994 2 35871 98.4862 35.7545 0003675 159.2354 200.8974 14.21812927593084 BLITS DEB 1 39119U 09049J 21056.37059907 -.00000006 00000-0 16146-4 0 9998 2 39119 98.4862 35.9987 0004710 152.1387 208.0044 14.21888618419180